Location: Newark
(35.6799°N, 139.7636°E)
Time: 18:02:59
(UTC+00:00)

Transit 2A - Pass Details

Date: 11 December 2019
Orbit: 601 x 957 km, 66.7° (Epoch: 20 January)

Event Time Altitude Azimuth Distance (km) Brightness Sun altitude
Rises 19:33:57 0° 160° (SSE) 3,172 9.6 -25.0°
Reaches altitude 10° 19:37:44 10° 132° (SE) 2,169 9.1 -24.2°
Maximum altitude 19:39:49 13° 107° (ESE) 1,949 9.1 -23.8°
Drops below altitude 10° 19:41:51 10° 81° (E) 2,089 9.2 -23.4°
Sets 19:45:19 0° 53° (NE) 2,943 9.6 -22.7°
